CREW DRAGON 10

Last updated on Sat Aug 09 2025 00:02:10 GMT+0000 (Coordinated Universal Time)

1 63204U 25049A 25220.54245790 .00007126 00000+0 13092-3 0 9995 2 63204 51.6352 47.5724 0001458 168.6743 191.4279 15.50392869 21803
UTC large
Height (km)
Speed (km/s)
/
Latitude / Longitude
Inclination (degrees)
Orbital Period (minutes)
Azimuth
Elevation
Range (km)
Doppler Factor

Next 0 passes for location: London (51.5072 / 0.1276)

Sorry there are no passes over London.
CREW DRAGON 10